Lanzarote > ESTACION METEOROLÓGICA Famara - Teguise

DATOS ACTUALES Online

Ultima actulizacion 39 minutos

19.5 ºC

Temperatura

85

Humedad (%)

1016.01

Presión (mb)

0

Precipitación (mm)

41.3 W

Viento (Km/h)

GRÁFICA DIARIA

Temperatura últimas 24 horas (ºC)

Humedad últimas 24 horas (%)

Presión atmosférica últimas 24 horas (mb)

Precipitaciones últimas 23 horas (mm)

Viento últimas 24 horas (Km/h)

Hora Temperatura (°C) ºC Precipitación (mm) mm Presión (mb) mb Humedad (%) % Viento (Km/h) km/h
27 - 03:00 19 0 1016 82 32 W
27 - 04:00 18.9 0 1015 83 29.1 W
27 - 05:00 19 0 1015 84 29.1 W
27 - 06:00 19 0 1016 85 29.7 W
27 - 07:00 19 0 1016 85 23.8 W
27 - 08:00 19.6 0 1017 82 28.3 W
27 - 09:00 20 0 1017 83 30.2 W
27 - 10:00 20.4 0 1017 81 35.2 W
27 - 11:00 21.2 0 1017 79 29.2 W
27 - 12:00 21 0 1017 77 40.8 W
27 - 13:00 21.1 0 1017 78 38.5 W
27 - 14:00 21.4 0 1017 77 43.3 W
27 - 15:00 21.5 0 1016 79 38.9 W
27 - 16:00 21.3 0 1016 81 42.1 W
27 - 17:00 21.5 0 1016 80 36.9 W
27 - 18:00 21 0 1016 80 44.1 W
27 - 19:00 20.7 0 1016 84 41.8 W
27 - 20:00 20.5 0 1016 84 42.6 W
27 - 21:00 20.2 0 1016 85 38.8 W
27 - 22:00 20.3 0 1017 83 37.3 W
27 - 23:00 20 0 1017 85 40.1 W
28 - 00:00 19.7 0 1017 83 43.7 W
28 - 01:00 19.7 0 1017 84 40.4 W
28 - 02:00 19.7 0 1016 85 34.3 W
28 - 03:00 19.5 0 1016 85 41.3 W
Apalmet utiliza cookies propias y de terceros para mejorar la usabilidad y la experiencia web. Política de cookies.